Miscellaneous Local Product
Issued by NWS North Platte, NE

Home | Current Version | Previous Version | Graphics & Text | Print | Product List | Glossary On
Versions: 1 2 3 4 5 6 7 8 9 10 11 12 13 14 15 16 17 18 19 20 21 22 23 24 25 26 27 28 29 30 31 32 33 34 35 36 37 38 39 40 41 42 43 44 45 46 47 48 49 50
107
AXUS43 KLBF 240710
MISLBF


WESTERN AND NORTH CENTRAL NEBRASKA HOURLY WEATHER ROUNDUP
NATIONAL WEATHER SERVICE NORTH PLATTE NE
100 AM CST FRI FEB 24 2017

NOTE: "FAIR" INDICATES FEW OR NO CLOUDS BELOW 12,000 FEET WITH NO
SIGNIFICANT WEATHER AND/OR OBSTRUCTIONS TO VISIBILITY.

NOTE: STATIONS NOT REPORTING VARIABLES SUCH AS SKY/WEATHER OR
PRESSURE ARE PROVIDED BY RAWS AND APRS NETWORKS AND ARE NOT UNDER
NATIONAL WEATHER SERVICE QUALITY CONTROL.

...OBSERVATIONS IN AND NEAR THE EASTERN PANHANDLE OF NEBRASKA...

CITY           SKY/WX    TMP DP  RH WIND       PRES   REMARKS
PINE RIDGE     LGT SNOW  23  20  88 N14       29.95S FOG     WCI  11
CHADRON        LGT SNOW  23  20  88 NE14      29.96R FOG     WCI  11
ALLIANCE       LGT SNOW  20  18  92 N16       29.87S FOG     WCI   6
SIDNEY         LGT SNOW  20  17  88 N20       29.84R FOG     WCI   4
CRESCENT LAKE    N/A     20  19  95 N15G22      N/A  WCI   6
$$

...OBSERVATIONS IN NORTHERN NEBRASKA AND FAR SOUTHERN SOUTH DAKOTA...

CITY           SKY/WX    TMP DP  RH WIND       PRES   REMARKS
WINNER         LGT SNOW  26  23  88 N18       29.94R FOG     WCI  13
VALENTINE      CLOUDY    23  19  85 N18G25    29.89S FOG     WCI   9
THEDFORD       LGT SNOW  24  22  92 N20G26    29.84R WCI   9
AINSWORTH      CLOUDY    23  22  98 N29       29.85S WCI   6
O`NEILL        CLOUDY    26  25  96 N22G28    29.82S WCI  12
ORD            LGT SNOW  26  21  81 N20G31    29.76R WCI  12
BROKEN BOW     LGT SNOW  24  22  91 N25       29.76R VSB 3/4 WCI   8
VALENTINE NWR    N/A     21  19  93 N15G24      N/A  WCI   8
BUTTE            N/A     23  22  94 N17G28      N/A  WCI   9
HALSEY           N/A     22  20  93 N9G22       N/A  WCI  12
CHAMBERS         N/A     24  23  95 N8          N/A  WCI  15
EWING            N/A     25  24  95 N9G16       N/A  WCI  16
$$

...OBSERVATIONS IN SOUTHWEST NEBRASKA AND FAR NORTHEAST COLORADO...

CITY           SKY/WX    TMP DP  RH WIND       PRES   REMARKS
HOLYOKE        LGT SNOW  25  21  86 N12       29.83S WCI  14
IMPERIAL       LGT SNOW  23  20  88 N17       29.82S FOG     WCI   9
OGALLALA       LGT SNOW  25  21  85 N18G29    29.83S WCI  12
NORTH PLATTE   LGT SNOW  24  19  81 N22G29    29.80R WCI   9
MCCOOK         CLOUDY    27  23  85 N16       29.78S WCI  15
LEXINGTON      CLOUDY    26  23  87 N18G25    29.76S WCI  13
STAPLETON        N/A     21  19  93 NE3G16      N/A
GOTHENBURG       N/A     24  20  86 N12         N/A  WCI  13
CALLAWAY         N/A     22  20  93 N15         N/A  WCI   9
$$

...OBSERVATIONS IN CENTRAL LINCOLN COUNTY AREA...

CITY           SKY/WX    TMP DP  RH WIND       PRES   REMARKS
N.P. AIRPORT   LGT SNOW  24  19  81 N22G29    29.80R WCI   9
N.P. DOWNTOWN    N/A     22  20  90 N10G18      N/A  WCI  11
N.P. SOUTHEAST   N/A     22  20  90 N7G20       N/A  WCI  14
N.P. HILLCREST   N/A     22  20  92 N21G31      N/A  WCI   7
$$

...SOME OBSERVATIONS FROM AROUND THE REGION...

CITY           SKY/WX    TMP DP  RH WIND       PRES   REMARKS
LARAMIE        CLOUDY    10   6  84 CALM      29.73F
CHEYENNE       LGT SNOW  13   9  84 N9        29.80S FOG     WCI   1
DENVER         CLOUDY    19  13  77 N9        29.84F WCI   8
AKRON          FLURRIES  19  16  88 N14       29.82R WCI   6
SCOTTSBLUFF    CLOUDY    22  17  81 N8        29.90R WCI  12
RAPID CITY     CLOUDY    24  20  84 N10       29.99S WCI  14
BISMARCK       CLEAR     18  12  77 N6        30.16R WCI  10
PIERRE         CLOUDY    27  20  75 N20G28    29.99S WCI  13
SIOUX FALLS    CLOUDY    27  24  89 NE26G35   29.80F FOG     WCI  12
OMAHA          FLURRIES  34  30  85 N20G25    29.59R WCI  23
GRAND ISLAND   LGT SNOW  28  28 100 N21G28    29.71R FOG     WCI  15
KANSAS CITY    CLOUDY    43  41  93 NW21G29   29.47R
WICHITA        CLOUDY    40  35  83 NW25G33   29.60R WCI  29
OKLAHOMA CITY  MOCLDY    45  38  76 N24       29.62R
DALLAS         PTCLDY    69  59  70 S14       29.56S
AMARILLO       CLOUDY    35  30  82 N24G31    29.77R WCI  23
DODGE CITY     CLOUDY    31  24  75 N21G31    29.74R WCI  18
HAYS           CLOUDY    32  26  78 N18       29.72R WCI  20
GOODLAND       CLOUDY    23  20  88 NW22G31   29.77R WCI   8
$$




USA.gov is the U.S. government's official web portal to all federal, state and local government web resources and services.